Weather History for Tulsa, OK

Change the Weather History Date:

Friday, June 21, 2013

  Actual Average Record
Temperature  
Mean Temperature 87 °F 79 °F  
Max Temperature 95 °F 89 °F 107 °F (1936)
Min Temperature 78 °F 69 °F 54 °F (1961)
Cooling Degree Days 22 14  
Month to date cooling degree days 259 241  
Year to date cooling degree days 451 475  
Since 1 June cooling degree days 259 241  
Growing Degree Days 36 (Base 50)    
Moisture  
Dew Point 69 °F    
Average Humidity 59    
Maximum Humidity 79    
Minimum Humidity 39    
Precipitation  
Precipitation 0.00 in 0.15 in 4.37 in (1948)
Month to date precipitation 1.69 3.51  
Year to date precipitation 15.57 20.01  
Sea Level Pressure  
Sea Level Pressure 29.95 in    
Wind  
Wind Speed 15 mph (SSE)    
Max Wind Speed 24 mph    
Max Gust Speed 31 mph    
Visibility 9 miles    
Events      
T = Trace of Precipitation, MM = Missing Value Source: NWS Daily Summary

Daily Weather History Graph

Daily Weather History Graph

Search for Another Location

Airport:

Trip Planner

Search our weather history database for the weather conditions in past years. The results will help you decide how hot, cold, wet, or windy it might be!

Date:

Astronomy

Jun. 21, 2013 Rise Set
Actual Time 6:06 AM CDT 8:44 PM CDT
Civil Twilight 5:36 AM CDT 9:14 PM CDT
Nautical Twilight 4:58 AM CDT 9:52 PM CDT
Astronomical Twilight 4:16 AM CDT 10:34 PM CDT
Moon 6:58 PM CDT (6/21) 4:20 AM CDT (6/21)
Length of Visible Light 15h 38m
Length of Day
14h 37m
Waxing Gibbous, 95% of the Moon is Illuminated
Jun 21
Waxing Gibbous
Jun 23
Full
Jun 29
Last Quarter
Jul 8
New
Jul 15
First Quarter

Hourly Weather History & Observations

Time (CDT) Temp. Heat Index Dew Point Humidity Pressure Visibility Wind Dir Wind Speed Gust Speed Precip Events Conditions
12:53 AM 82.0 °F 86.3 °F 71.1 °F 69% 29.95 in 10.0 mi SSE 15.0 mph - N/A   Mostly Cloudy
1:53 AM 80.1 °F 83.6 °F 71.1 °F 74% 29.96 in 10.0 mi SSE 11.5 mph - N/A   Mostly Cloudy
2:53 AM 79.0 °F - 71.1 °F 77% 29.95 in 10.0 mi SSE 12.7 mph - N/A   Mostly Cloudy
3:53 AM 79.0 °F - 71.1 °F 77% 29.94 in 9.0 mi SSE 12.7 mph - N/A   Partly Cloudy
4:53 AM 78.1 °F - 71.1 °F 79% 29.95 in 10.0 mi SSE 13.8 mph - N/A   Partly Cloudy
5:53 AM 78.1 °F - 71.1 °F 79% 29.95 in 10.0 mi SSE 12.7 mph - N/A   Clear
6:53 AM 78.1 °F - 71.1 °F 79% 29.95 in 10.0 mi SSE 16.1 mph - N/A   Partly Cloudy
7:53 AM 80.1 °F 83.6 °F 71.1 °F 74% 29.96 in 10.0 mi South 15.0 mph 24.2 mph N/A   Clear
8:53 AM 82.0 °F 85.9 °F 70.0 °F 67% 29.98 in 10.0 mi South 17.3 mph - N/A   Clear
9:53 AM 84.9 °F 90.1 °F 71.1 °F 63% 29.99 in 10.0 mi South 13.8 mph 23.0 mph N/A   Clear
10:53 AM 88.0 °F 93.8 °F 71.1 °F 57% 29.99 in 10.0 mi South 16.1 mph - N/A   Clear
11:53 AM 90.0 °F 96.4 °F 71.1 °F 54% 29.99 in 10.0 mi South 13.8 mph - N/A   Clear
12:53 PM 91.9 °F 97.4 °F 70.0 °F 48% 29.98 in 10.0 mi South 16.1 mph - N/A   Partly Cloudy
1:53 PM 93.9 °F 99.1 °F 69.1 °F 44% 29.96 in 9.0 mi South 18.4 mph 25.3 mph N/A   Partly Cloudy
2:53 PM 93.9 °F 95.6 °F 64.0 °F 37% 29.95 in 9.0 mi South 25.3 mph 29.9 mph N/A   Mostly Cloudy
3:53 PM 93.0 °F 95.0 °F 64.9 °F 39% 29.94 in 9.0 mi South 17.3 mph 25.3 mph N/A   Mostly Cloudy
4:53 PM 91.0 °F 94.3 °F 66.9 °F 45% 29.94 in 9.0 mi SSE 13.8 mph - N/A   Mostly Cloudy
5:53 PM 91.9 °F 95.9 °F 68.0 °F 45% 29.92 in 9.0 mi South 19.6 mph - N/A   Mostly Cloudy
6:53 PM 90.0 °F 92.4 °F 66.0 °F 45% 29.91 in 8.0 mi South 18.4 mph 31.1 mph N/A   Mostly Cloudy
7:53 PM 88.0 °F 91.4 °F 68.0 °F 51% 29.91 in 8.0 mi South 17.3 mph 23.0 mph N/A   Mostly Cloudy
8:53 PM 86.0 °F 90.1 °F 69.1 °F 57% 29.92 in 8.0 mi SSE 11.5 mph - N/A   Mostly Cloudy
9:53 PM 84.9 °F 87.6 °F 66.9 °F 55% 29.92 in 9.0 mi SSE 13.8 mph - N/A   Mostly Cloudy
10:53 PM 84.0 °F 86.5 °F 66.9 °F 56% 29.93 in 9.0 mi South 15.0 mph - N/A   Mostly Cloudy
11:53 PM 82.0 °F 84.9 °F 68.0 °F 62% 29.94 in 10.0 mi South 12.7 mph - N/A   Scattered Clouds